DW5805 Weather Reports


time (UTC)temp
C
wind
direction
speed
KPH
gust
KPH
rain 1hr
cm
rain 24hr
cm
rain mn
cm
humidity
%
barometer
mb
20260503050933 12 287 1.6 6.4 0.03 0.13 0.13 79 1015.6
20260503050654 12 287 1.6 6.4 0.05 0.13 0.13 79 1015.6
20260503045932 12 287 0.0 4.8 0.08 0.13 0.13 78 1015.7
20260503045431 12 287 0.0 3.2 0.08 0.13 0.13 79 1015.6
20260503044931 12 287 0.0 1.6 0.08 0.13 0.13 80 1015.5
20260503044426 12 287 0.0 0.0 0.08 0.13 0.13 79 1015.4
20260503043919 12 287 0.0 4.8 0.10 0.13 0.13 79 1015.4
20260503043413 12 287 3.2 11.3 0.10 0.13 0.13 79 1015.2
20260503042908 12 287 4.8 12.9 0.10 0.13 0.13 78 1015.0
20260503042625 12 288 3.2 12.9 0.10 0.13 0.13 78 1015.0
20260503041908 12 288 0.0 4.8 0.10 0.13 0.13 77 1014.9
20260503041408 13 288 0.0 3.2 0.10 0.13 0.13 75 1015.2
20260503040907 13 287 0.0 4.8 0.08 0.10 0.10 72 1015.4
20260503040407 13 287 0.0 4.8 0.05 0.08 0.08 71 1015.6
20260503035907 13 288 0.0 0.0 0.03 0.05 0.08 72 1015.7
20260503035408 13 288 0.0 0.0 0.03 0.05 0.05 71 1015.7
20260503034906 13 288 0.0 3.2 0.03 0.05 0.05 71 1015.6
20260503034404 13 288 0.0 6.4 0.00 0.03 0.05 68 1015.7
20260503033901 13 288 1.6 6.4 0.00 0.03 0.03 66 1015.7
20260503033359 14 287 1.6 6.4 0.00 0.03 0.03 66 1015.8
20260503032858 14 287 1.6 6.4 0.00 0.03 0.03 64 1015.7
20260503032358 14 287 1.6 6.4 0.00 0.03 0.03 60 1015.5
20260503031858 14 287 1.6 6.4 0.00 0.03 0.03 59 1015.2
20260503031358 14 287 1.6 6.4 0.00 0.03 0.03 60 1015.0
20260503031335 14 287 0.0 4.8 0.00 0.03 0.03 60 1014.8
20260503030345 14 287 1.6 6.4 0.00 0.03 0.03 59 1014.6
20260503025845 14 287 4.8 11.3 0.00 0.03 0.03 59 1014.3
20260503025346 15 287 4.8 11.3 0.00 0.03 0.03 59 1014.4
20260503024845 15 288 4.8 14.5 0.00 0.03 0.03 58 1014.4
20260503024605 15 288 6.4 14.5 0.00 0.03 0.03 58 1014.4
20260503023845 15 289 4.8 8.0 0.00 0.03 0.03 57 1014.4
20260503023344 15 290 4.8 11.3 0.00 0.03 0.03 55 1014.3
20260503022844 15 290 4.8 11.3 0.00 0.03 0.03 55 1014.2
20260503022608 15 288 4.8 8.0 0.00 0.03 0.03 56 1014.2
20260503021841 15 288 4.8 6.4 0.00 0.03 0.03 58 1014.1
20260503021341 15 288 1.6 6.4 0.00 0.03 0.03 57 1014.0
20260503020840 15 288 0.0 4.8 0.00 0.03 0.03 58 1014.0
20260503020340 15 288 0.0 3.2 0.00 0.03 0.03 60 1014.1
20260503015840 15 288 0.0 3.2 0.03 0.03 0.03 59 1014.1
20260503015338 15 288 0.0 1.6 0.03 0.03 0.03 60 1014.1
20260503014839 15 288 1.6 8.0 0.03 0.03 0.03 60 1014.0
20260503014333 15 288 6.4 11.3 0.03 0.03 0.03 60 1014.0
20260503013833 15 288 8.0 12.9 0.03 0.03 0.03 60 1014.0
20260503013331 15 291 4.8 12.9 0.03 0.03 0.03 59 1014.1
20260503012831 15 292 4.8 12.9 0.03 0.03 0.03 61 1014.2
20260503012816 16 292 8.0 17.7 0.03 0.03 0.03 59 1014.3
20260503011829 16 289 8.0 17.7 0.03 0.03 0.03 58 1014.3
20260503011327 16 295 6.4 16.1 0.03 0.03 0.03 59 1014.4
20260503010828 16 288 6.4 14.5 0.03 0.03 0.03 58 1014.4
20260503010328 16 121 3.2 9.7 0.03 0.03 0.03 62 1014.4
20260503005828 17 107 0.0 6.4 0.00 0.00 0.00 58 1014.7
20260503005326 17 118 3.2 14.5 0.00 0.00 0.00 51 1014.8
20260503004826 17 69 6.4 16.1 0.00 0.00 0.00 50 1014.9
20260503004324 18 86 4.8 16.1 0.00 0.00 0.00 47 1014.9
20260503003824 18 55 1.6 12.9 0.00 0.00 0.00 39 1014.6
20260503003321 18 260 3.2 9.7 0.00 0.00 0.00 36 1014.3
20260503002819 19 261 3.2 6.4 0.00 0.00 0.00 36 1013.9
20260503002318 19 261 3.2 8.0 0.00 0.00 0.00 35 1013.4
20260503001811 19 291 1.6 8.0 0.00 0.00 0.00 34 1013.3
20260503001529 20 288 1.6 6.4 0.00 0.00 0.00 33 1013.2
20260503000812 20 288 1.6 4.8 0.00 0.00 0.00 33 1013.3
20260503000311 20 287 1.6 4.8 0.00 0.00 0.00 32 1013.3
20260502235813 20 287 1.6 4.8 0.00 0.00 0.00 32 1013.2
20260502235311 20 286 1.6 6.4 0.00 0.00 0.00 33 1013.2
20260502234812 20 286 4.8 12.9 0.00 0.00 0.00 32 1013.3
20260502234312 20 286 8.0 17.7 0.00 0.00 0.00 31 1013.0
20260502233811 20 288 9.7 19.3 0.00 0.00 0.00 31 1012.6
20260502233320 20 291 11.3 19.3 0.00 0.00 0.00 31 1012.6
20260502232812 21 290 12.9 22.5 0.00 0.00 0.00 30 1012.5
20260502232312 21 294 11.3 22.5 0.00 0.00 0.00 30 1012.5
20260502231811 21 287 11.3 24.1 0.00 0.00 0.00 29 1012.5
20260502231312 22 290 9.7 24.1 0.00 0.00 0.00 29 1012.5
20260502230811 22 299 9.7 20.9 0.00 0.00 0.00 29 1012.6
20260502230306 23 294 8.0 20.9 0.00 0.00 0.00 27 1012.6
20260502225800 23 206 3.2 11.3 0.00 0.00 0.00 24 1012.6
20260502225742 23 149 1.6 9.7 0.00 0.00 0.00 24 1012.6
20260502224754 23 150 1.6 9.7 0.00 0.00 0.00 24 1012.7
20260502224252 23 150 3.2 11.3 0.00 0.00 0.00 24 1012.7
20260502223752 23 150 3.2 11.3 0.00 0.00 0.00 25 1012.9
20260502223251 23 150 3.2 9.7 0.00 0.00 0.00 24 1012.9
20260502222749 23 150 4.8 12.9 0.00 0.00 0.00 24 1012.9
20260502222250 23 153 4.8 12.9 0.00 0.00 0.00 24 1012.9
20260502221749 22 145 4.8 14.5 0.00 0.00 0.00 23 1012.9
20260502221249 22 133 6.4 14.5 0.00 0.00 0.00 24 1013.0
20260502221229 22 150 6.4 17.7 0.00 0.00 0.00 23 1013.1
20260502220248 22 153 4.8 17.7 0.00 0.00 0.00 22 1013.2
20260502220233 22 126 6.4 25.7 0.00 0.00 0.00 22 1013.2
20260502215248 22 132 8.0 25.7 0.00 0.00 0.00 22 1013.4
20260502214748 22 113 4.8 17.7 0.00 0.00 0.00 22 1013.5
20260502214510 22 115 3.2 9.7 0.00 0.00 0.00 23 1013.6
20260502213744 22 101 3.2 9.7 0.00 0.00 0.00 24 1013.8
20260502213242 22 136 3.2 11.3 0.00 0.00 0.00 25 1013.8
20260502212740 22 138 1.6 11.3 0.00 0.00 0.00 25 1013.9
20260502212240 22 116 1.6 9.7 0.00 0.00 0.00 25 1013.9
20260502211740 22 115 3.2 9.7 0.00 0.00 0.00 25 1014.0
20260502211239 22 118 1.6 9.7 0.00 0.00 0.00 25 1014.0
20260502210741 22 117 1.6 9.7 0.00 0.00 0.00 25 1014.0
20260502210503 22 117 3.2 11.3 0.00 0.00 0.00 25 1014.0
20260502210015 22 115 3.2 11.3 0.00 0.00 0.00 25 1014.1
20260502205240 22 146 1.6 11.3 0.00 0.00 0.00 25 1014.1
20260502204740 22 147 3.2 11.3 0.00 0.00 0.00 24 1014.1
20260502204240 22 146 4.8 12.9 0.00 0.00 0.00 24 1014.2
20260502203738 22 147 4.8 14.5 0.00 0.00 0.00 24 1014.1
20260502203718 22 53 4.8 16.1 0.00 0.00 0.00 24 1014.2
20260502202736 22 142 4.8 16.1 0.00 0.00 0.00 23 1014.1
20260502202238 22 109 4.8 16.1 0.00 0.00 0.00 23 1014.2
20260502202214 23 129 4.8 16.1 0.00 0.00 0.00 22 1014.2
20260502201233 23 101 6.4 16.1 0.00 0.00 0.00 23 1014.2
20260502200959 23 150 6.4 17.7 0.00 0.00 0.00 23 1014.3
20260502200232 23 139 6.4 17.7 0.00 0.00 0.00 23 1014.3
20260502195731 23 129 4.8 16.1 0.00 0.00 0.00 23 1014.3
20260502195451 23 66 3.2 12.9 0.00 0.00 0.00 23 1014.2
20260502194732 23 118 3.2 11.3 0.00 0.00 0.00 23 1014.3
20260502194454 23 94 3.2 11.3 0.00 0.00 0.00 23 1014.3
20260502193730 23 116 4.8 14.5 0.00 0.00 0.00 22 1014.4
20260502193229 23 104 6.4 14.5 0.00 0.00 0.00 23 1014.4
20260502192730 23 73 6.4 14.5 0.00 0.00 0.00 22 1014.4
20260502192230 23 96 6.4 12.9 0.00 0.00 0.00 22 1014.4
20260502191730 23 75 6.4 12.9 0.00 0.00 0.00 22 1014.4
20260502191449 23 84 6.4 16.1 0.00 0.00 0.00 22 1014.6
20260502190726 23 84 6.4 16.1 0.00 0.00 0.00 22 1014.6
20260502190220 23 69 4.8 14.5 0.00 0.00 0.00 22 1014.7
20260502185720 23 105 6.4 14.5 0.00 0.00 0.00 22 1014.6
20260502185220 24 113 6.4 14.5 0.00 0.00 0.00 22 1014.7
20260502184720 23 66 4.8 14.5 0.00 0.00 0.00 23 1014.7
20260502184219 23 88 4.8 16.1 0.00 0.00 0.00 22 1014.8
20260502183717 23 142 6.4 16.1 0.00 0.00 0.00 23 1014.8
20260502183441 23 155 4.8 12.9 0.00 0.00 0.00 23 1014.9
20260502183159 22 116 4.8 12.9 0.00 0.00 0.00 25 1014.9
20260502182218 22 103 3.2 12.9 0.00 0.00 0.00 24 1015.0
20260502181715 22 78 3.2 6.4 0.00 0.00 0.00 24 1015.0
20260502181443 22 113 1.6 9.7 0.00 0.00 0.00 26 1015.0
20260502180716 22 113 1.6 9.7 0.00 0.00 0.00 26 1015.1
20260502180216 21 115 1.6 6.4 0.00 0.00 0.00 25 1015.1
20260502180201 22 115 1.6 4.8 0.00 0.00 0.00 25 1015.2
20260502170201 20 113 0.0 3.2 0.00 0.00 0.00 26 1015.5
20260502164200 19 113 1.6 3.2 0.00 0.00 0.00 25 1015.5
20260502163700 19 113 0.0 3.2 0.00 0.00 0.00 26 1015.5
20260502163159 18 113 0.0 3.2 0.00 0.00 0.00 28 1015.6
20260502162658 18 113 0.0 1.6 0.00 0.00 0.00 29 1015.6
20260502162637 18 113 0.0 1.6 0.00 0.00 0.00 30 1015.6
20260502161658 17 113 1.6 3.2 0.00 0.00 0.00 34 1015.6
20260502161158 17 113 1.6 6.4 0.00 0.00 0.00 33 1015.6
20260502160658 17 113 0.0 6.4 0.00 0.00 0.00 35 1015.7
20260502160156 17 113 0.0 1.6 0.00 0.00 0.00 36 1015.7
20260502152149 13 113 0.0 3.2 0.00 0.00 0.00 46 1015.7
20260502151907 12 113 0.0 1.6 0.00 0.00 0.00 46 1015.8
20260502151148 12 113 0.0 1.6 0.00 0.00 0.00 45 1015.8
20260502150649 11 113 0.0 1.6 0.00 0.00 0.00 47 1015.7
20260502150148 11 113 0.0 1.6 0.00 0.00 0.00 46 1015.7
20260502130332 8 113 0.0 0.0 0.00 0.00 0.00 59 1014.9
20260502123612 8 113 0.0 0.0 0.00 0.00 0.00 57 1014.8
20260502123336 8 113 0.0 0.0 0.00 0.00 0.00 57 1014.8
20260502122609 8 113 0.0 0.0 0.00 0.00 0.00 55 1014.8
20260502122108 8 113 0.0 0.0 0.00 0.00 0.00 55 1014.8
20260502121832 8 113 0.0 0.0 0.00 0.00 0.00 56 1014.7
20260502121109 8 113 0.0 0.0 0.00 0.00 0.00 55 1014.7
20260502120602 8 113 0.0 0.0 0.00 0.00 0.00 55 1014.7
20260502115822 8 113 0.0 0.0 0.00 0.00 0.00 51 1014.7
20260502115320 8 113 0.0 0.0 0.00 0.00 0.00 52 1014.6
20260502115048 8 113 0.0 0.0 0.00 0.00 0.00 52 1014.7
20260502114054 8 113 0.0 0.0 0.00 0.00 0.00 52 1014.7
20260502113552 8 113 0.0 0.0 0.00 0.00 0.00 51 1014.8
20260502113050 9 113 0.0 0.0 0.00 0.00 0.00 49 1014.7
20260502112547 9 113 0.0 0.0 0.00 0.00 0.00 48 1014.7
20260502112045 9 113 0.0 0.0 0.00 0.00 0.00 48 1014.7
20260502111800 9 113 0.0 0.0 0.00 0.00 0.00 48 1014.7
20260502111044 9 113 0.0 0.0 0.00 0.00 0.00 48 1014.7
20260502111032 9 113 0.0 0.0 0.00 0.00 0.00 47 1014.7
20260502110043 10 113 0.0 0.0 0.00 0.00 0.00 48 1014.7
20260502105806 10 113 0.0 0.0 0.00 0.00 0.00 49 1014.7
20260502105041 10 113 0.0 0.0 0.00 0.00 0.00 47 1014.7
20260502104542 10 113 0.0 0.0 0.00 0.00 0.00 47 1014.6
20260502104043 10 113 0.0 0.0 0.00 0.00 0.00 47 1014.6
20260502103541 10 113 0.0 0.0 0.00 0.00 0.00 48 1014.6
20260502103040 10 113 0.0 0.0 0.00 0.00 0.00 46 1014.6
20260502102540 10 113 0.0 0.0 0.00 0.00 0.00 46 1014.6
20260502102037 10 113 0.0 0.0 0.00 0.00 0.00 45 1014.4
20260502102015 10 113 0.0 0.0 0.00 0.00 0.00 45 1014.4
20260502101034 10 113 0.0 0.0 0.00 0.00 0.00 45 1014.4
20260502100531 10 113 0.0 0.0 0.00 0.00 0.00 45 1014.3
20260502091520 11 113 0.0 0.0 0.00 0.00 0.00 37 1014.8
20260502091020 11 113 0.0 0.0 0.00 0.00 0.00 37 1014.8
20260502090516 12 113 0.0 0.0 0.00 0.00 0.00 37 1014.9
20260502071437 15 113 0.0 1.6 0.00 0.00 0.00 22 1015.5
20260502071201 15 113 0.0 1.6 0.00 0.00 0.00 23 1015.5
20260502070432 15 113 0.0 1.6 0.00 0.00 0.00 21 1015.5
20260502065933 15 113 0.0 1.6 0.00 0.00 0.00 21 1015.5
20260502065653 15 113 0.0 0.0 0.00 0.00 0.00 21 1015.4
20260502064919 16 113 0.0 0.0 0.00 0.00 0.00 21 1015.4
20260502064413 16 113 0.0 0.0 0.00 0.00 0.00 19 1015.2
20260502064127 16 113 0.0 1.6 0.00 0.00 0.00 18 1015.2
20260502063402 16 113 0.0 1.6 0.00 0.00 0.00 18 1015.2
20260502062856 16 113 0.0 0.0 0.00 0.00 0.00 18 1015.2
20260502062349 17 113 0.0 0.0 0.00 0.00 0.00 19 1015.2
20260502061843 17 113 0.0 1.6 0.00 0.00 0.00 17 1015.2
20260502061340 17 113 0.0 1.6 0.00 0.00 0.00 17 1015.2
20260502061053 17 113 0.0 0.0 0.00 0.00 0.00 17 1015.4
20260502060326 17 113 0.0 3.2 0.00 0.00 0.00 16 1015.2
20260502055820 17 113 0.0 3.2 0.00 0.00 0.00 15 1015.2
20260502055315 18 113 0.0 1.6 0.00 0.00 0.00 15 1015.2
20260502055024 18 113 0.0 3.2 0.00 0.00 0.00 15 1015.4
20260502054302 18 113 1.6 3.2 0.00 0.00 0.00 15 1015.2
20260502053755 18 113 1.6 3.2 0.00 0.00 0.00 15 1015.2
20260502053251 18 113 0.0 3.2 0.00 0.00 0.00 15 1015.5
20260502052743 18 113 0.0 3.2 0.00 0.00 0.00 15 1015.4
20260502052238 18 113 1.6 4.8 0.00 0.00 0.00 16 1015.4
20260502051954 18 113 1.6 6.4 0.00 0.00 0.00 15 1015.5
20260502051226 18 113 1.6 9.7 0.00 0.00 0.00 15 1015.4